Time,TemperatureF,DewpointF,PressureIn,WindDirection,WindDirectionDegrees,WindSpeedMPH,WindSpeedGustMPH,Humidity,HourlyPrecipIn,Conditions,Clouds,dailyrainin,SoftwareType,DateUTC
2013-01-08 00:13:00,57.4,24.0,30.00,WNW,285,0.0,3.0,28,0.00,,,0.00,weatherlink.com 1.10,2013-01-08 08:13:00,
2013-01-08 00:28:00,58.3,22.0,29.99,SW,225,0.0,2.0,25,0.00,,,0.00,weatherlink.com 1.10,2013-01-08 08:28:00,
2013-01-08 00:43:00,57.8,24.0,30.00,SSW,201,0.0,2.0,27,0.00,,,0.00,weatherlink.com 1.10,2013-01-08 08:43:00,
2013-01-08 00:58:00,56.3,29.0,30.00,WSW,252,1.0,2.0,36,0.00,,,0.00,weatherlink.com 1.10,2013-01-08 08:58:00,
2013-01-08 01:13:00,55.1,28.0,30.00,WSW,256,1.0,3.0,35,0.00,,,0.00,weatherlink.com 1.10,2013-01-08 09:13:00,
2013-01-08 01:28:00,55.7,26.0,30.00,WNW,301,5.0,7.0,32,0.00,,,0.00,weatherlink.com 1.10,2013-01-08 09:28:00,
2013-01-08 01:43:00,54.1,27.0,30.00,NW,304,4.0,7.0,35,0.00,,,0.00,weatherlink.com 1.10,2013-01-08 09:43:00,
2013-01-08 01:58:00,53.6,28.0,30.00,West,270,6.0,9.0,37,0.00,,,0.00,weatherlink.com 1.10,2013-01-08 09:58:00,
2013-01-08 02:13:00,55.6,27.0,29.99,NW,306,3.0,7.0,33,0.00,,,0.00,weatherlink.com 1.10,2013-01-08 10:13:00,
2013-01-08 02:28:00,53.9,28.0,29.98,WNW,290,4.0,5.0,37,0.00,,,0.00,weatherlink.com 1.10,2013-01-08 10:28:00,
2013-01-08 02:43:00,53.9,27.0,29.99,West,274,3.0,5.0,36,0.00,,,0.00,weatherlink.com 1.10,2013-01-08 10:43:00,
2013-01-08 02:58:00,53.8,26.0,29.98,WNW,288,2.0,7.0,34,0.00,,,0.00,weatherlink.com 1.10,2013-01-08 10:58:00,
2013-01-08 03:13:00,53.9,27.0,29.99,NW,321,2.0,7.0,36,0.00,,,0.00,weatherlink.com 1.10,2013-01-08 11:13:00,
2013-01-08 03:28:00,53.7,26.0,29.99,WNW,285,5.0,5.0,35,0.00,,,0.00,weatherlink.com 1.10,2013-01-08 11:28:00,
2013-01-08 03:43:00,51.8,27.0,29.99,West,264,2.0,5.0,39,0.00,,,0.00,weatherlink.com 1.10,2013-01-08 11:43:00,
2013-01-08 03:58:00,52.5,27.0,29.99,NNW,343,4.0,5.0,37,0.00,,,0.00,weatherlink.com 1.10,2013-01-08 11:58:00,
2013-01-08 04:13:00,53.2,27.0,29.99,WNW,285,1.0,5.0,36,0.00,,,0.00,weatherlink.com 1.10,2013-01-08 12:13:00,
2013-01-08 04:28:00,55.5,24.0,29.99,NNW,343,2.0,5.0,30,0.00,,,0.00,weatherlink.com 1.10,2013-01-08 12:28:00,
2013-01-08 04:43:00,57.3,24.0,29.98,WSW,249,1.0,6.0,28,0.00,,,0.00,weatherlink.com 1.10,2013-01-08 12:43:00,
2013-01-08 04:58:00,55.3,24.0,29.98,NW,314,2.0,2.0,30,0.00,,,0.00,weatherlink.com 1.10,2013-01-08 12:58:00,
2013-01-08 05:13:00,54.9,25.0,29.99,NE,45,3.0,4.0,31,0.00,,,0.00,weatherlink.com 1.10,2013-01-08 13:13:00,
2013-01-08 05:28:00,54.8,24.0,29.99,NE,54,2.0,3.0,30,0.00,,,0.00,weatherlink.com 1.10,2013-01-08 13:28:00,
2013-01-08 05:43:00,55.3,24.0,30.00,ENE,70,2.0,4.0,30,0.00,,,0.00,weatherlink.com 1.10,2013-01-08 13:43:00,
2013-01-08 05:58:00,56.1,23.0,30.00,ENE,63,4.0,7.0,28,0.00,,,0.00,weatherlink.com 1.10,2013-01-08 13:58:00,
2013-01-08 06:13:00,55.7,25.0,30.00,NE,47,4.0,6.0,30,0.00,,,0.00,weatherlink.com 1.10,2013-01-08 14:13:00,
2013-01-08 06:28:00,54.9,25.0,30.02,NE,56,2.0,5.0,31,0.00,,,0.00,weatherlink.com 1.10,2013-01-08 14:28:00,
2013-01-08 06:43:00,54.6,25.0,30.02,ENE,75,3.0,4.0,32,0.00,,,0.00,weatherlink.com 1.10,2013-01-08 14:43:00,
2013-01-08 06:58:00,54.8,25.0,30.03,NE,53,4.0,6.0,31,0.00,,,0.00,weatherlink.com 1.10,2013-01-08 14:58:00,
2013-01-08 07:14:00,56.4,26.0,30.04,ENE,73,2.0,6.0,31,0.00,,,0.00,weatherlink.com 1.10,2013-01-08 15:14:00,
2013-01-08 07:29:00,57.8,26.0,30.04,ENE,63,3.0,4.0,30,0.00,,,0.00,weatherlink.com 1.10,2013-01-08 15:29:00,
2013-01-08 07:44:00,59.4,28.0,30.05,ENE,71,4.0,4.0,30,0.00,,,0.00,weatherlink.com 1.10,2013-01-08 15:44:00,
2013-01-08 07:59:00,60.6,26.0,30.05,NE,43,3.0,3.0,27,0.00,,,0.00,weatherlink.com 1.10,2013-01-08 15:59:00,
2013-01-08 08:29:00,62.5,27.0,30.05,East,80,4.0,4.0,26,0.00,,,0.00,weatherlink.com 1.10,2013-01-08 16:29:00,
2013-01-08 08:44:00,63.2,28.0,30.06,ENE,69,2.0,4.0,26,0.00,,,0.00,weatherlink.com 1.10,2013-01-08 16:44:00,
2013-01-08 08:59:00,63.9,29.0,30.06,East,94,0.0,3.0,27,0.00,,,0.00,weatherlink.com 1.10,2013-01-08 16:59:00,
2013-01-08 09:14:00,62.5,34.0,30.07,East,96,3.0,3.0,35,0.00,,,0.00,weatherlink.com 1.10,2013-01-08 17:14:00,
2013-01-08 09:29:00,62.4,38.0,30.07,East,79,2.0,4.0,41,0.00,,,0.00,weatherlink.com 1.10,2013-01-08 17:29:00,
2013-01-08 09:44:00,62.8,37.0,30.07,WSW,243,2.0,2.0,38,0.00,,,0.00,weatherlink.com 1.10,2013-01-08 17:44:00,
2013-01-08 10:00:00,62.4,38.0,30.07,ESE,121,3.0,3.0,40,0.00,,,0.00,weatherlink.com 1.10,2013-01-08 18:00:00,
2013-01-08 10:14:00,62.0,36.0,30.07,SW,219,1.0,3.0,38,0.00,,,0.00,weatherlink.com 1.10,2013-01-08 18:14:00,
2013-01-08 10:30:00,63.1,38.0,30.06,SW,216,1.0,3.0,39,0.00,,,0.00,weatherlink.com 1.10,2013-01-08 18:30:00,
2013-01-08 10:44:00,64.6,37.0,30.06,SE,133,1.0,4.0,36,0.00,,,0.00,weatherlink.com 1.10,2013-01-08 18:44:00,
2013-01-08 10:59:00,65.6,36.0,30.05,East,80,2.0,4.0,33,0.00,,,0.00,weatherlink.com 1.10,2013-01-08 18:59:00,
2013-01-08 11:14:00,66.9,35.0,30.04,ESE,120,2.0,5.0,31,0.00,,,0.00,weatherlink.com 1.10,2013-01-08 19:14:00,
2013-01-08 11:29:00,67.9,30.0,30.02,ESE,120,0.0,3.0,24,0.00,,,0.00,weatherlink.com 1.10,2013-01-08 19:29:00,
2013-01-08 11:59:00,69.7,31.0,30.02,SW,224,4.0,5.0,24,0.00,,,0.00,weatherlink.com 1.10,2013-01-08 19:59:00,
2013-01-08 12:14:00,70.4,31.0,30.01,WSW,246,2.0,3.0,23,0.00,,,0.00,weatherlink.com 1.10,2013-01-08 20:14:00,
2013-01-08 12:44:00,71.0,33.0,30.01,South,172,4.0,5.0,25,0.00,,,0.00,weatherlink.com 1.10,2013-01-08 20:44:00,
2013-01-08 12:59:00,70.3,36.0,30.00,SSW,212,2.0,5.0,28,0.00,,,0.00,weatherlink.com 1.10,2013-01-08 20:59:00,
2013-01-08 13:14:00,70.4,34.0,30.00,SW,231,2.0,6.0,26,0.00,,,0.00,weatherlink.com 1.10,2013-01-08 21:14:00,
2013-01-08 13:29:00,71.0,30.0,30.00,SW,236,4.0,6.0,22,0.00,,,0.00,weatherlink.com 1.10,2013-01-08 21:29:00,
2013-01-08 13:44:00,70.7,30.0,30.00,SSW,212,2.0,6.0,22,0.00,,,0.00,weatherlink.com 1.10,2013-01-08 21:44:00,
2013-01-08 14:00:00,72.6,37.0,30.00,SW,235,1.0,4.0,27,0.00,,,0.00,weatherlink.com 1.10,2013-01-08 22:00:00,
2013-01-08 14:15:00,72.3,33.0,30.00,WSW,255,5.0,5.0,24,0.00,,,0.00,weatherlink.com 1.10,2013-01-08 22:15:00,
2013-01-08 14:30:00,71.3,34.0,30.00,West,268,2.0,5.0,25,0.00,,,0.00,weatherlink.com 1.10,2013-01-08 22:30:00,
2013-01-08 14:45:00,71.1,34.0,30.00,SSW,203,4.0,6.0,26,0.00,,,0.00,weatherlink.com 1.10,2013-01-08 22:45:00,
2013-01-08 15:00:00,71.2,34.0,30.00,WSW,239,3.0,6.0,25,0.00,,,0.00,weatherlink.com 1.10,2013-01-08 23:00:00,
2013-01-08 15:15:00,71.1,36.0,30.00,South,184,4.0,6.0,28,0.00,,,0.00,weatherlink.com 1.10,2013-01-08 23:15:00,
2013-01-08 15:30:00,70.2,48.0,30.01,West,277,2.0,7.0,45,0.00,,,0.00,weatherlink.com 1.10,2013-01-08 23:30:00,
2013-01-08 15:45:00,68.6,49.0,30.01,West,259,4.0,8.0,50,0.00,,,0.00,weatherlink.com 1.10,2013-01-08 23:45:00,
2013-01-08 16:00:00,67.2,48.0,30.02,WNW,283,3.0,8.0,50,0.00,,,0.00,weatherlink.com 1.10,2013-01-09 00:00:00,
2013-01-08 16:15:00,66.4,47.0,30.02,West,262,2.0,6.0,50,0.00,,,0.00,weatherlink.com 1.10,2013-01-09 00:15:00,
2013-01-08 16:30:00,64.7,47.0,30.02,WSW,240,4.0,7.0,53,0.00,,,0.00,weatherlink.com 1.10,2013-01-09 00:30:00,
2013-01-08 16:45:00,63.3,46.0,30.02,West,259,0.0,2.0,54,0.00,,,0.00,weatherlink.com 1.10,2013-01-09 00:45:00,
2013-01-08 17:00:00,61.0,45.0,30.03,WNW,295,1.0,2.0,55,0.00,,,0.00,weatherlink.com 1.10,2013-01-09 01:00:00,
2013-01-08 17:15:00,59.9,43.0,30.03,West,276,3.0,4.0,53,0.00,,,0.00,weatherlink.com 1.10,2013-01-09 01:15:00,
2013-01-08 17:30:00,59.5,42.0,30.03,WSW,257,3.0,5.0,53,0.00,,,0.00,weatherlink.com 1.10,2013-01-09 01:30:00,
2013-01-08 17:45:00,58.9,42.0,30.03,WNW,285,2.0,3.0,54,0.00,,,0.00,weatherlink.com 1.10,2013-01-09 01:45:00,
2013-01-08 18:00:00,58.9,42.0,30.03,ENE,68,1.0,2.0,53,0.00,,,0.00,weatherlink.com 1.10,2013-01-09 02:00:00,
2013-01-08 18:15:00,59.9,36.0,30.04,NW,305,0.0,3.0,41,0.00,,,0.00,weatherlink.com 1.10,2013-01-09 02:15:00,
2013-01-08 18:30:00,60.8,35.0,30.04,NNW,328,0.0,2.0,39,0.00,,,0.00,weatherlink.com 1.10,2013-01-09 02:30:00,
2013-01-08 18:45:00,60.4,37.0,30.04,NE,43,2.0,3.0,42,0.00,,,0.00,weatherlink.com 1.10,2013-01-09 02:45:00,
2013-01-08 19:00:00,59.9,40.0,30.04,ENE,65,1.0,2.0,48,0.00,,,0.00,weatherlink.com 1.10,2013-01-09 03:00:00,
2013-01-08 19:15:00,59.5,44.0,30.04,ENE,67,0.0,3.0,56,0.00,,,0.00,weatherlink.com 1.10,2013-01-09 03:15:00,
2013-01-08 19:30:00,58.7,45.0,30.03,ENE,73,0.0,2.0,60,0.00,,,0.00,weatherlink.com 1.10,2013-01-09 03:30:00,
2013-01-08 19:45:00,58.5,44.0,30.04,NNW,337,0.0,1.0,60,0.00,,,0.00,weatherlink.com 1.10,2013-01-09 03:45:00,
2013-01-08 20:00:00,58.8,44.0,30.04,North,351,2.0,2.0,59,0.00,,,0.00,weatherlink.com 1.10,2013-01-09 04:00:00,
2013-01-08 20:15:00,59.4,44.0,30.04,NNE,30,1.0,1.0,57,0.00,,,0.00,weatherlink.com 1.10,2013-01-09 04:15:00,
2013-01-08 20:30:00,59.1,44.0,30.04,NE,45,2.0,2.0,58,0.00,,,0.00,weatherlink.com 1.10,2013-01-09 04:30:00,
2013-01-08 20:45:00,59.3,45.0,30.05,NE,40,1.0,2.0,60,0.00,,,0.00,weatherlink.com 1.10,2013-01-09 04:45:00,
2013-01-08 21:00:00,58.5,44.0,30.05,ENE,74,2.0,2.0,59,0.00,,,0.00,weatherlink.com 1.10,2013-01-09 05:00:00,
2013-01-08 21:15:00,58.7,44.0,30.05,ENE,72,1.0,2.0,59,0.00,,,0.00,weatherlink.com 1.10,2013-01-09 05:15:00,
2013-01-08 21:30:00,58.0,44.0,30.05,ENE,57,0.0,1.0,59,0.00,,,0.00,weatherlink.com 1.10,2013-01-09 05:30:00,
2013-01-08 21:45:00,58.1,43.0,30.05,WNW,284,1.0,2.0,58,0.00,,,0.00,weatherlink.com 1.10,2013-01-09 05:45:00,
2013-01-08 22:00:00,59.2,41.0,30.05,WNW,294,3.0,4.0,51,0.00,,,0.00,weatherlink.com 1.10,2013-01-09 06:00:00,
2013-01-08 22:15:00,59.1,41.0,30.06,NW,309,1.0,1.0,52,0.00,,,0.00,weatherlink.com 1.10,2013-01-09 06:15:00,
2013-01-08 22:30:00,59.2,41.0,30.06,WNW,297,1.0,3.0,52,0.00,,,0.00,weatherlink.com 1.10,2013-01-09 06:30:00,
2013-01-08 22:45:00,58.8,40.0,30.06,WNW,284,2.0,2.0,51,0.00,,,0.00,weatherlink.com 1.10,2013-01-09 06:45:00,
2013-01-08 23:00:00,55.6,41.0,30.06,West,259,2.0,4.0,58,0.00,,,0.00,weatherlink.com 1.10,2013-01-09 07:00:00,
2013-01-08 23:15:00,56.3,39.0,30.06,WSW,253,3.0,4.0,53,0.00,,,0.00,weatherlink.com 1.10,2013-01-09 07:15:00,
2013-01-08 23:30:00,57.0,39.0,30.06,West,271,3.0,6.0,52,0.00,,,0.00,weatherlink.com 1.10,2013-01-09 07:30:00,
2013-01-08 23:45:00,58.4,39.0,30.06,NW,316,2.0,3.0,48,0.00,,,0.00,weatherlink.com 1.10,2013-01-09 07:45:00,